This is the latest recevied weather packets stored in our database for station/object KQ4KX. If no packets are shown the sender has not sent any weather packets the latest 10 day(s).
| Time | Temp. | Humidity | Pressure | Rain* | Wind** | Luminosity | Snow |
|---|---|---|---|---|---|---|---|
| 1777666946 | 32.78° C | 47% | 1009.5 hPa | 0 mm | - | - | - |
| 1777666616 | 32.22° C | 46% | 1009.6 hPa | 0 mm | - | - | - |
| 1777666287 | 32.78° C | 47% | 1009.6 hPa | 0 mm | - | - | - |
| 1777665987 | 32.78° C | 46% | 1009.8 hPa | 0 mm | - | - | - |
| 1777665687 | 32.78° C | 45% | 1009.8 hPa | 0 mm | - | - | - |
| 1777665027 | 32.78° C | 48% | 1009.9 hPa | 0 mm | - | - | - |
| 1777664697 | 32.78° C | 47% | 1010.1 hPa | 0 mm | - | - | - |
| 1777664397 | 32.78° C | 47% | 1010.3 hPa | 0 mm | - | - | - |
| 1777664097 | 33.33° C | 49% | 1010.3 hPa | 0 mm | - | - | - |
| 1777663797 | 33.33° C | 47% | 1010.6 hPa | 0 mm | - | - | - |
| 1777663497 | 32.78° C | 49% | 1010.7 hPa | 0 mm | - | - | - |
| 1777663167 | 32.78° C | 48% | 1010.9 hPa | 0 mm | - | - | - |
| 1777662867 | 32.78° C | 50% | 1011 hPa | 0 mm | - | - | - |
| 1777662267 | 32.78° C | 51% | 1011.2 hPa | 0 mm | - | - | - |
| 1777661637 | 32.22° C | 52% | 1011.3 hPa | 0 mm | - | - | - |
| 1777661007 | 32.22° C | 51% | 1011.4 hPa | 0 mm | - | - | - |
| 1777660706 | 32.22° C | 52% | 1011.4 hPa | 0 mm | - | - | - |
| 1777660076 | 32.78° C | 49% | 1011.5 hPa | 0 mm | - | - | - |
| 1777659446 | 32.78° C | 50% | 1011.5 hPa | 0 mm | - | - | - |
| 1777659116 | 32.22° C | 51% | 1011.7 hPa | 0 mm | - | - | - |
| 1777658817 | 32.22° C | 51% | 1011.6 hPa | 0 mm | - | - | - |
| 1777658487 | 32.22° C | 51% | 1011.7 hPa | 0 mm | - | - | - |
| 1777658186 | 32.78° C | 53% | 1011.8 hPa | 0 mm | - | - | - |
| 1777657887 | 32.22° C | 54% | 1011.7 hPa | 0 mm | - | - | - |
| 1777657556 | 31.67° C | 52% | 1011.9 hPa | 0 mm | - | - | - |
* Rain latest hour (hover to see other rain measurements)
** Current wind speed in m/s (hover to see current wind gust speed)